| time (UTC) | temp F | wind direction | speed MPH | gust MPH | rain 1hr in | rain 24hr in | rain mn in | humidity % | barometer mb |
| 20260505222055 | 51 | 359 | 3.0 | 6.0 | 0.00 | 0.04 | 0.00 | 99 | 1006.8 |
| 20260505221055 | 51 | 158 | 1.0 | 2.0 | 0.01 | 0.04 | 0.00 | 99 | 1007.0 |
| 20260505220056 | 51 | 34 | 2.0 | 3.0 | 0.01 | 0.04 | 0.00 | 99 | 1006.8 |
| 20260505214055 | 52 | 66 | 2.0 | 4.0 | 0.01 | 0.04 | 0.04 | 99 | 1007.1 |
| 20260505213055 | 52 | 322 | 3.0 | 6.0 | 0.01 | 0.05 | 0.04 | 99 | 1007.1 |
| 20260505212054 | 52 | 80 | 0.0 | 4.0 | 0.01 | 0.05 | 0.04 | 99 | 1007.1 |
| 20260505211054 | 52 | 73 | 3.0 | 6.0 | 0.00 | 0.04 | 0.03 | 99 | 1007.3 |
| 20260505210055 | 52 | 62 | 1.0 | 3.0 | 0.00 | 0.05 | 0.03 | 99 | 1007.2 |
| 20260505204055 | 52 | 50 | 0.0 | 7.0 | 0.00 | 0.05 | 0.03 | 99 | 1007.4 |
| 20260505202054 | 52 | 24 | 3.0 | 4.0 | 0.00 | 0.05 | 0.03 | 99 | 1007.4 |
| 20260505201055 | 52 | 27 | 0.0 | 4.0 | 0.00 | 0.05 | 0.03 | 99 | 1007.3 |
| 20260505200055 | 52 | 117 | 0.0 | 4.0 | 0.00 | 0.05 | 0.03 | 99 | 1007.3 |
| 20260505195056 | 52 | 54 | 0.0 | 6.0 | 0.00 | 0.06 | 0.03 | 99 | 1007.2 |
| 20260505194055 | 52 | 42 | 0.0 | 6.0 | 0.00 | 0.06 | 0.03 | 99 | 1007.3 |
| 20260505193055 | 52 | 31 | 1.0 | 4.0 | 0.00 | 0.07 | 0.03 | 99 | 1007.3 |
| 20260505192055 | 52 | 10 | 2.0 | 6.0 | 0.00 | 0.08 | 0.03 | 99 | 1007.2 |
| 20260505190054 | 52 | 80 | 0.0 | 6.0 | 0.00 | 0.18 | 0.03 | 99 | 1007.1 |
| 20260505185055 | 52 | 69 | 0.0 | 6.0 | 0.00 | 0.18 | 0.03 | 98 | 1007.3 |
| 20260505184055 | 52 | 16 | 0.0 | 3.0 | 0.00 | 0.18 | 0.03 | 98 | 1007.3 |
| 20260505183055 | 52 | 64 | 1.0 | 3.0 | 0.00 | 0.18 | 0.03 | 98 | 1007.4 |
| 20260505182054 | 52 | 19 | 1.0 | 6.0 | 0.00 | 0.18 | 0.03 | 98 | 1007.3 |
| 20260505180054 | 53 | 33 | 0.0 | 6.0 | 0.00 | 0.18 | 0.03 | 97 | 1007.3 |
| 20260505175054 | 52 | 66 | 0.0 | 4.0 | 0.00 | 0.18 | 0.03 | 97 | 1007.3 |
| 20260505174054 | 52 | 54 | 1.0 | 4.0 | 0.00 | 0.18 | 0.03 | 97 | 1007.5 |
| 20260505173054 | 53 | 91 | 1.0 | 2.0 | 0.00 | 0.18 | 0.03 | 97 | 1007.5 |
| 20260505172055 | 52 | 97 | 0.0 | 8.0 | 0.00 | 0.18 | 0.03 | 97 | 1007.6 |
| 20260505171055 | 53 | 88 | 1.0 | 4.0 | 0.00 | 0.18 | 0.03 | 97 | 1007.4 |
| 20260505170056 | 52 | 62 | 0.0 | 7.0 | 0.00 | 0.18 | 0.03 | 96 | 1007.5 |
| 20260505165054 | 52 | 58 | 1.0 | 7.0 | 0.00 | 0.18 | 0.03 | 96 | 1007.4 |
| 20260505163055 | 52 | 47 | 0.0 | 4.0 | 0.00 | 0.18 | 0.03 | 96 | 1007.8 |
| 20260505162054 | 53 | 77 | 0.0 | 4.0 | 0.00 | 0.18 | 0.03 | 96 | 1007.6 |
| 20260505161055 | 52 | 346 | 2.0 | 3.0 | 0.00 | 0.18 | 0.03 | 96 | 1007.7 |
| 20260505153055 | 52 | 50 | 0.0 | 4.0 | 0.00 | 0.18 | 0.03 | 96 | 1008.1 |
| 20260505152055 | 52 | 83 | 0.0 | 6.0 | 0.00 | 0.18 | 0.03 | 95 | 1008.3 |
| 20260505151055 | 53 | 62 | 0.0 | 4.0 | 0.00 | 0.18 | 0.03 | 95 | 1008.2 |
| 20260505124055 | 53 | 33 | 2.0 | 8.0 | 0.00 | 0.18 | 0.03 | 91 | 1008.9 |
| 20260505123055 | 53 | 59 | 2.0 | 6.0 | 0.00 | 0.18 | 0.03 | 92 | 1009.1 |
| 20260505122054 | 53 | 330 | 1.0 | 6.0 | 0.00 | 0.18 | 0.03 | 92 | 1009.3 |
| 20260505120055 | 52 | 355 | 1.0 | 6.0 | 0.00 | 0.18 | 0.03 | 93 | 1009.1 |
| 20260505115055 | 52 | 35 | 1.0 | 4.0 | 0.00 | 0.18 | 0.03 | 94 | 1009.2 |
| 20260505114055 | 52 | 340 | 3.0 | 7.0 | 0.00 | 0.18 | 0.03 | 94 | 1009.3 |
| 20260505113055 | 52 | 356 | 1.0 | 8.0 | 0.00 | 0.18 | 0.03 | 94 | 1009.4 |
| 20260505112055 | 51 | 15 | 4.0 | 6.0 | 0.00 | 0.18 | 0.03 | 94 | 1009.5 |
| 20260505111055 | 51 | 319 | 4.0 | 8.0 | 0.00 | 0.18 | 0.03 | 95 | 1009.6 |
| 20260505102055 | 51 | 39 | 2.0 | 4.0 | 0.00 | 0.18 | 0.03 | 98 | 1009.7 |
| 20260505100058 | 51 | 26 | 4.0 | 6.0 | 0.00 | 0.18 | 0.03 | 98 | 1009.9 |
| 20260505095054 | 51 | 17 | 1.0 | 6.0 | 0.00 | 0.18 | 0.03 | 98 | 1009.9 |
| 20260505094055 | 51 | 354 | 3.0 | 4.0 | 0.00 | 0.18 | 0.03 | 98 | 1009.9 |
| 20260505093054 | 51 | 63 | 3.0 | 7.0 | 0.00 | 0.18 | 0.03 | 98 | 1009.8 |
| 20260505092055 | 51 | 303 | 3.0 | 6.0 | 0.00 | 0.18 | 0.03 | 99 | 1009.9 |
| 20260505091054 | 51 | 355 | 2.0 | 4.0 | 0.00 | 0.18 | 0.03 | 99 | 1009.9 |
| 20260505090054 | 51 | 1 | 1.0 | 6.0 | 0.00 | 0.18 | 0.03 | 99 | 1009.9 |
| 20260505085054 | 51 | 36 | 2.0 | 6.0 | 0.00 | 0.18 | 0.03 | 99 | 1009.7 |
| 20260505083055 | 51 | 37 | 2.0 | 3.0 | 0.00 | 0.18 | 0.03 | 99 | 1009.9 |
| 20260505081055 | 51 | 40 | 0.0 | 3.0 | 0.00 | 0.18 | 0.03 | 99 | 1010.0 |
| 20260505080055 | 51 | 48 | 1.0 | 2.0 | 0.00 | 0.18 | 0.03 | 99 | 1009.9 |
| 20260505075054 | 51 | 313 | 2.0 | 3.0 | 0.00 | 0.18 | 0.03 | 99 | 1010.1 |
| 20260505074055 | 51 | 32 | 2.0 | 4.0 | 0.00 | 0.18 | 0.03 | 99 | 1010.0 |
| 20260505073055 | 50 | 39 | 1.0 | 4.0 | 0.00 | 0.18 | 0.03 | 99 | 1010.0 |
| 20260505071055 | 51 | 353 | 0.0 | 3.0 | 0.00 | 0.18 | 0.03 | 99 | 1010.0 |
| 20260505070055 | 51 | 323 | 0.0 | 4.0 | 0.00 | 0.18 | 0.03 | 99 | 1010.1 |
| 20260505064055 | 51 | 22 | 1.0 | 3.0 | 0.00 | 0.18 | 0.03 | 99 | 1009.9 |
| 20260505063055 | 51 | 326 | 1.0 | 3.0 | 0.00 | 0.18 | 0.03 | 99 | 1010.1 |
| 20260505062054 | 51 | 32 | 1.0 | 2.0 | 0.00 | 0.18 | 0.03 | 99 | 1010.1 |
| 20260505061055 | 51 | 311 | 0.0 | 2.0 | 0.00 | 0.18 | 0.03 | 99 | 1010.0 |
| 20260505060055 | 51 | 314 | 0.0 | 3.0 | 0.00 | 0.18 | 0.03 | 99 | 1010.0 |
| 20260505055055 | 52 | 358 | 0.0 | 3.0 | 0.00 | 0.18 | 0.03 | 99 | 1010.1 |
| 20260505053054 | 52 | 13 | 2.0 | 4.0 | 0.00 | 0.18 | 0.03 | 99 | 1010.0 |
| 20260505052056 | 52 | 357 | 1.0 | 2.0 | 0.00 | 0.18 | 0.03 | 99 | 1009.9 |
| 20260505051055 | 53 | 31 | 1.0 | 4.0 | 0.00 | 0.18 | 0.03 | 99 | 1010.0 |
| 20260505041055 | 55 | 13 | 0.0 | 0.0 | 0.00 | 0.18 | 0.03 | 99 | 1009.8 |
| 20260505035055 | 55 | 342 | 0.0 | 0.0 | 0.00 | 0.18 | 0.03 | 99 | 1010.0 |
| 20260505034054 | 56 | 3 | 0.0 | 0.0 | 0.00 | 0.18 | 0.03 | 99 | 1009.9 |
| 20260505032054 | 55 | 257 | 0.0 | 0.0 | 0.00 | 0.18 | 0.03 | 99 | 1009.8 |
| 20260505031054 | 55 | 257 | 0.0 | 0.0 | 0.00 | 0.18 | 0.03 | 99 | 1010.0 |
| 20260505030055 | 55 | 257 | 0.0 | 0.0 | 0.00 | 0.18 | 0.03 | 99 | 1010.1 |
| 20260505025056 | 55 | 257 | 0.0 | 0.0 | 0.00 | 0.18 | 0.03 | 99 | 1010.0 |
| 20260505024055 | 55 | 257 | 0.0 | 0.0 | 0.00 | 0.18 | 0.03 | 99 | 1010.0 |
| 20260505023056 | 55 | 257 | 0.0 | 0.0 | 0.00 | 0.18 | 0.03 | 99 | 1010.0 |
| 20260505021104 | 55 | 257 | 0.0 | 0.0 | 0.01 | 0.18 | 0.03 | 98 | 1010.2 |
| 20260505020058 | 55 | 257 | 0.0 | 0.0 | 0.01 | 0.18 | 0.03 | 98 | 1010.3 |
| 20260505015056 | 55 | 257 | 0.0 | 0.0 | 0.01 | 0.18 | 0.03 | 98 | 1010.3 |
| 20260505014058 | 55 | 258 | 0.0 | 2.0 | 0.01 | 0.18 | 0.03 | 98 | 1010.3 |
| 20260505013104 | 56 | 258 | 0.0 | 1.0 | 0.01 | 0.18 | 0.03 | 98 | 1010.5 |
| 20260505012058 | 56 | 261 | 0.0 | 2.0 | 0.00 | 0.17 | 0.02 | 98 | 1010.5 |
| 20260505010100 | 56 | 249 | 1.0 | 3.0 | 0.00 | 0.17 | 0.02 | 98 | 1010.7 |
| 20260505005103 | 56 | 240 | 1.0 | 3.0 | 0.01 | 0.17 | 0.02 | 98 | 1010.7 |
| 20260505004056 | 56 | 255 | 2.0 | 3.0 | 0.01 | 0.17 | 0.02 | 98 | 1010.9 |
| 20260505003056 | 56 | 249 | 0.0 | 1.0 | 0.01 | 0.17 | 0.02 | 98 | 1010.8 |
| 20260505002100 | 56 | 273 | 0.0 | 2.0 | 0.01 | 0.17 | 0.02 | 98 | 1010.7 |
| 20260505000058 | 56 | 214 | 1.0 | 4.0 | 0.01 | 0.17 | 0.02 | 98 | 1011.0 |
| 20260504235059 | 56 | 242 | 1.0 | 3.0 | 0.00 | 0.16 | 0.01 | 98 | 1011.1 |
| 20260504234100 | 56 | 230 | 0.0 | 6.0 | 0.00 | 0.16 | 0.01 | 98 | 1011.3 |
| 20260504233055 | 56 | 196 | 2.0 | 6.0 | 0.01 | 0.16 | 0.01 | 98 | 1011.5 |
| 20260504232054 | 57 | 214 | 2.0 | 6.0 | 0.01 | 0.16 | 0.01 | 98 | 1011.5 |
| 20260504231055 | 56 | 223 | 0.0 | 1.0 | 0.01 | 0.16 | 0.01 | 98 | 1011.4 |
| 20260504225055 | 57 | 233 | 0.0 | 2.0 | 0.01 | 0.16 | 0.01 | 98 | 1011.6 |
| 20260504224055 | 57 | 236 | 0.0 | 2.0 | 0.01 | 0.16 | 0.01 | 98 | 1011.6 |